Погода в Глазовке

Россия / Приморский край     45°18′16″N   133°30′41″E
темп.,
°C
ветер,
м/с
пор.,
м/с
влажн.,
%
обл.,
%
осадки,
мм/ч
давл.,
гПа
погр.,
м
2 декабря, чт
чт201:00−14зсз714808 0.0 1006692
04:00−13зсз615805 0.0 1007661
07:00−16юз26905 0.0 1008140
10:00−15ююв399182 0.0 1008190
13:00−7ююз51090100 0.2 1005596
16:00−4ююз61382100 0.5 1002914
19:00−3ю51381100 0.3 1001915
22:00−2юз61478100 0.5 1001796
3 декабря, пт
пт301:00−3юз41286100 0.0 1002459
04:00−6юз41189100 0.0 1004294
07:00−7з3894100 0.3 1006338
10:00−11ссз3986100 0.6 1012556
13:00−10сз247697 0.0 1013657
16:00−10з368599 0.1 1014768
19:00−19ю229911 0.0 101710
22:00−22ю1110060 0.0 101710
4 декабря, сб
сб401:00−17юв119994 0.1 101723
04:00−15ссв1198100 0.4 101724
07:00−17с3995100 0.1 1020298
10:00−18всв12905 0.1 102395
13:00−15зюз248229 0.0 1024441
16:00−14з248179 0.0 1025620
19:00−22ю22985 0.0 102811
22:00−24ю229910 0.0 103019
5 декабря, вс
вс501:00−24ююв229812 0.0 103124
04:00−22ююв24958 0.0 103049
07:00−20юв34935 0.0 103063
10:00−16ююв25835 0.0 1029123
13:00−9ююв36700 0.0 1027264
16:00−6ююв27814 0.0 1025228
19:00−12юв22905 0.0 102422
22:00−10юв23895 0.0 102339
6 декабря, пн
пн601:00−10ююв23905 0.0 102346
04:00−10ююв24915 0.0 102254
07:00−9ююв36935 0.0 102276
10:00−5ю311949 0.0 1022264
13:00+1юз31087100 0.0 1023409
16:000зюз398952 0.0 1023405
19:00−8ююз119835 0.0 102610
22:00−12ююв119847 0.0 10299